STARLINK-3789, 52283

Orbit data source: Space-Track

STARLINK-3789, 52283 is a payload satellite owned by SpaceX/Seattle (US) in LEO that was launched on Thu, 21 Apr 2022 UTC via an FALCON 9 launch vehicle from the Air Force Eastern Test Range (AFETR). Payload-class satellites include a variety of spacecraft equipped with specific instruments for various scientific and technological missions. These include communications satellites like Starlink; space stations such as the ISS; scientific satellites like the Hubble; Earth observation satellites from companies like Planet Labs, Umbra, and HawkEye 360; GPS; miniature CubeSats for education and research; and military/defense satellites.

Loading next visibility...
Identifier
52283, 2022-041Y
Orbit
LEO
Country
Flag of USUS
Related business
Manufacturer
SpaceX/Seattle
Mission
Operational Commercial Communications
Bus & Motor
STARLINK, Unknown motor
Mass
297 kg wet, ~275 kg dry
Launch date (UTC)
2022-04-21 (4 years ago)
Launch vehicle
FALCON 9
Launch site
Air Force Eastern Test Range (AFETR)
Object type
Payload
Rocket body
Debris
Shape & HBR
Box + 1 Pan, 10.1 m
Radar Cross Section
11.087 m², Large (>1 m²)

Expand to show TLE details & history
Last TLE update: 17 hours ago

TLE from 17 hours ago
0 STARLINK-3789
1 52283U 22041Y   26175.17812117 -.00000037  00000-0  15782-4 0  9996
2 52283  53.1606 350.9348 0001219  87.9968 272.1163 15.08832062230445
Epoch: 2026-06-24T04:16Z
TLE epoch observation values (Epoch: 2026-06-24T04:16:29.669Z)
Latitude
-0°
Longitude
14.47211°
Altitude
540.628 km
Speed
7.593 km/s
True Right ascension
23h 23m 44s
True Declination
0° 00' 00"
Sunlit
Object was in daylight at epoch
Visualization orbit readout
Latitude
Unknown
Longitude
Unknown
Altitude
Unknown
Speed
Unknown
Apparent Right ascension
Unknown
Apparent Declination
Unknown
Sunlit
N/A
Visualization observer readout
Local Sidereal Time
08:51:35
Azimuth
Unknown
Elevation
Unknown
Doppler factor
Unknown
Orbital elements
Apogee altitude
540.865 km
Perigee altitude
539.178 km
Semi-major axis
6,918.159 km
Eccentricity
0.00012
Inclination
53.1606°
RAAN
350.9348°
Arg. of periapsis
87.9968°
True anomaly
272.10234°
Mean anomaly
272.1163°
Eccentric anomaly
272.10932°
Mean motion
3.77188 °/min
Orbital period
95.44 mins
BSTAR
0.000015782
Loading maneuver chart data...
Computing Atmospheric mass density...
Loading historical data...
Loading historical data...
Loading historical data...
Loading historical data...
Loading historical data...
Loading historical data...
Loading historical data...

Documentation

Showing up to 5 results
|